Content
SEND FEEDBACK

Daily
Averages
Monthly
Summary
United States of America

BLACK HAWK, SOUTH DAKOTA


Home > North America > United States > South Dakota
Elevation: 3352 feet     Latitude: 44 05N     Longitude: 103 16W

WEATHER
 
SELECT A DAY
Number of Records: 209,823;   Date Range: 1/1/95 - 12/18/14
 
SHARE

PRINT THIS DATA

[ ← Previous Day ]
WEATHER ALMANAC - JANUARY 29, 2013
[ Next Day → ]
[ °C ]   °F
Weather ElementAverageHighLow
Temperature21.3 °F34.2 °F (1:55 pm)5.5 °F (11:55 pm)
Dewpoint15.1 °F25 °F (3:55 pm)-0.4 °F (11:55 pm)
Humidity77.2 %86 % (2:55 am)58 % (10:55 am)
Barometer29.96 in30.29 in (9:55 pm)29.78 in (3:55 am)
Wind Speed20.6 mph34.5 mph (6:55 pm)
Wind Gust42.6 mph (6:26 pm)
Weather ElementAverage
Visibility8.6 mi
Wind DirectionNNW (321 °)

Weather ElementTotal
Precipitation---
Heating Degree Days45.2 (Base 65)
Averaged from 40 records on January 29, 2013
WEATHER CONDITIONS BREAKOUT
WIND DIRECTION BREAKOUT
WEATHER BY HOUR - JANUARY 29, 2013
[ °C ]   °F
Local TimeTemperatureDewpointHumidityBarometerVisibilityWind DirectionWind SpeedGust SpeedPrecipitationEventsConditions
1:55 AM25.7 °F21.7 °F85 %29.79 in10.0 miWest (260°)3.5 mphOvercast
2:55 AM25.0 °F21.4 °F86 %29.79 in10.0 miWest (260°)4.6 mphOvercast
3:55 AM25.9 °F21.6 °F84 %29.78 in10.0 miWest (280°)4.6 mphOvercast
4:55 AM21.9 °F16.9 °F81 %29.79 in10.0 miWest (280°)8.1 mphPartly Cloudy
5:55 AM20.1 °F14.0 °F77 %29.79 in10.0 miWest (280°)8.1 mphClear
6:55 AM14.7 °F9.5 °F80 %29.81 in10.0 miWest (260°)5.8 mphClear
7:55 AM18.3 °F11.1 °F73 %29.82 in10.0 miWest (280°)5.8 mphClear
8:55 AM20.3 °F13.8 °F76 %29.82 in10.0 miWNW (290°)6.9 mphClear
9:55 AM28.8 °F16.7 °F61 %29.81 in10.0 miNW (310°)9.2 mphClear
10:55 AM30.4 °F17.1 °F58 %29.83 in10.0 miNNW (340°)9.2 mphClear
11:55 AM30.9 °F19.2 °F62 %29.83 in10.0 miNNW (340°)13.8 mphClear
12:55 PM33.3 °F21.6 °F62 %29.82 in10.0 miNorth (350°)15.0 mphClear
1:55 PM34.2 °F21.4 °F60 %29.83 in10.0 miNNW (340°)13.8 mphPartly Cloudy
2:55 PM32.5 °F23.2 °F68 %29.87 in10.0 miNNW (330°)23.0 mphClear
3:45 PM30.2 °F24.8 °F80 %29.90 in10.0 miNNW (340°)18.4 mphSnowLight Snow
3:55 PM29.7 °F25.0 °F83 %29.89 in10.0 miNNW (330°)23.0 mph29.9 mph0.00 inSnowLight Snow
4:02 PM28.4 °F24.8 °F86 %29.91 in10.0 miNNW (340°)20.7 mph29.9 mphSnowLight Snow
4:31 PM26.6 °F23.0 °F86 %29.93 in10.0 miNNW (330°)26.5 mph36.8 mphScattered Clouds
4:35 PM26.6 °F23.0 °F86 %29.93 in10.0 miNNW (330°)29.9 mph38.0 mphMostly Cloudy
4:55 PM25.3 °F21.2 °F84 %29.97 in4.0 miNNW (330°)29.9 mph41.4 mph0.00 inSnowLight Snow
5:01 PM24.8 °F19.4 °F80 %29.97 in3.0 miNNW (330°)33.4 mph40.3 mphSnowLight Snow
5:05 PM23.0 °F19.4 °F86 %29.97 in3.0 miNNW (330°)29.9 mph40.3 mphSnowLight Snow
5:24 PM23.0 °F19.4 °F86 %30.00 in3.0 miNNW (330°)24.2 mph36.8 mphSnowLight Snow
5:26 PM23.0 °F19.4 °F86 %30.00 in3.0 miNNW (330°)25.3 mph36.8 mphSnowLight Snow
5:55 PM20.3 °F16.3 °F85 %30.03 in4.0 miNNW (330°)31.1 mph38.0 mph0.00 inSnowLight Snow
6:26 PM17.6 °F14.0 °F86 %29.91 in3.0 miNW (320°)29.9 mph42.6 mphSnowLight Snow
6:46 PM17.6 °F12.2 °F79 %29.92 in6.0 miNNW (330°)32.2 mph42.6 mphSnowLight Snow
6:50 PM17.6 °F10.4 °F73 %30.10 in6.0 miNW (320°)32.2 mph42.6 mphSnowLight Snow
6:55 PM17.2 °F10.6 °F75 %30.10 in10.0 miNNW (330°)34.5 mph42.6 mph0.00 inSnowLight Snow
7:05 PM17.6 °F10.4 °F73 %30.10 in10.0 miNNW (330°)33.4 mph40.3 mphOvercast
7:30 PM15.8 °F10.4 °F79 %30.11 in10.0 miNNW (330°)29.9 mph41.4 mphOvercast
7:44 PM15.8 °F10.4 °F79 %30.13 in10.0 miNNW (330°)23.0 mph32.2 mphSnowLight Snow
7:55 PM15.1 °F9.9 °F80 %30.12 in10.0 miNNW (340°)24.2 mph0.00 inSnowLight Snow
8:08 PM14.0 °F8.6 °F79 %30.13 in10.0 miNNW (340°)24.2 mph33.4 mphSnowLight Snow
8:21 PM14.0 °F6.8 °F73 %30.13 in10.0 miNNW (330°)29.9 mph36.8 mphSnowLight Snow
8:54 PM12.2 °F5.0 °F73 %30.15 in10.0 miNNW (330°)24.2 mph35.7 mphOvercast
8:55 PM12.4 °F5.5 °F74 %30.15 in10.0 miNNW (330°)24.2 mph35.7 mph0.00 inOvercast
9:55 PM10.4 °F3.2 °F73 %30.29 in10.0 miNNW (340°)20.7 mphOvercast
10:55 PM7.5 °F0.1 °F72 %30.14 in10.0 miNNW (340°)20.7 mph27.6 mphPartly Cloudy
11:55 PM5.5 °F-0.4 °F77 %30.14 in10.0 miNorth (350°)16.1 mphPartly Cloudy
Hourly data recorded from KRCA, located miles away from Black Hawk, South Dakota







STORIES FROM OUR PARTNERS